This is the latest recevied weather packets stored in our database for station/object wb2ifs-13. If no packets are shown the sender has not sent any weather packets the latest 10 day(s).
| Time | Temp. | Humidity | Pressure | Rain* | Wind** | Luminosity | Snow |
|---|---|---|---|---|---|---|---|
| 1778206503 | 9.44° C | 86% | 1012.2 hPa | 0 mm | - | - | - |
| 1778204701 | 10° C | 84% | 1012.1 hPa | 0 mm | - | - | - |
| 1778203800 | 10° C | 83% | 1012.1 hPa | 0 mm | - | - | - |
| 1778202901 | 10.56° C | 81% | 1011.8 hPa | 0 mm | - | - | - |
| 1778202002 | 10.56° C | 81% | 1011.7 hPa | 0 mm | - | - | - |
| 1778201100 | 11.11° C | 79% | 1011.5 hPa | 0 mm | - | - | - |
| 1778200201 | 11.67° C | 78% | 1011.5 hPa | 0 mm | - | - | - |
| 1778199301 | 12.22° C | 76% | 1011.3 hPa | 0 mm | - | - | - |
| 1778198402 | 12.78° C | 75% | 1010.9 hPa | 0 mm | - | - | - |
| 1778197500 | 12.78° C | 73% | 1010.6 hPa | 0 mm | - | - | - |
| 1778196604 | 13.33° C | 71% | 1010.7 hPa | 0 mm | - | - | - |
| 1778195700 | 13.89° C | 70% | 1010.3 hPa | 0 mm | - | - | - |
| 1778194802 | 13.89° C | 69% | 1010.2 hPa | 0 mm | - | - | - |
| 1778193901 | 14.44° C | 68% | 1010 hPa | 0 mm | - | - | - |
| 1778193001 | 14.44° C | 66% | 1010 hPa | 0 mm | - | - | - |
| 1778192101 | 15° C | 64% | 1009.8 hPa | 0 mm | - | - | - |
| 1778191204 | 15.56° C | 60% | 1010 hPa | 0 mm | - | - | - |
| 1778190301 | 16.11° C | 57% | 1010 hPa | 0 mm | - | - | - |
| 1778189401 | 16.67° C | 58% | 1010.1 hPa | 0 mm | - | - | - |
| 1778188501 | 16.67° C | 56% | 1010 hPa | 0 mm | - | - | - |
| 1778187599 | 16.67° C | 59% | 1009.9 hPa | 0 mm | - | - | - |
| 1778186699 | 16.11° C | 59% | 1009.9 hPa | 0 mm | - | - | - |
| 1778185799 | 16.67° C | 62% | 1010 hPa | 0 mm | - | - | - |
| 1778184899 | 16.11° C | 66% | 1010.3 hPa | 0 mm | - | - | - |
| 1778184002 | 16.11° C | 61% | 1010.1 hPa | 0 mm | - | - | - |
* Rain latest hour (hover to see other rain measurements)
** Current wind speed in m/s (hover to see current wind gust speed)